Location: Olsztyn
(53.7767°N, 20.4765°E)
Time: 19:40:40
(UTC+02:00)

Envisat - Pass Details

Date: 03 March 2024
Orbit: 762 x 764 km, 98.3° (Epoch: 20 April)

Event Time Altitude Azimuth Distance (km) Brightness Sun altitude
Rises 03:22:50 0° 15° (NNE) 3,245 6.8 -26.4°
Reaches altitude 10° 03:25:09 10° 15° (NNE) 2,315 6.0 -26.1°
Maximum altitude 03:30:16 90° 278° (W) 773 2.9 -25.5°
Enters shadow 03:30:45 74° 198° (SSW) 800 2.9 -25.4°
